This demonstration page uses our WeatherBlox Daily Observations layout. Learn more.

Left ArrowRight Arrow

Hourly Observations for November 8, 2022

Temp ( °F °C ) Dew Point ( °F °C ) Humidity (%) Winds ( mph kmh ) Pressure ( in mb ) Visibility ( mi km ) Precip ( " mm )
12:15 am 00:15 Clear 57 14 30 -1 36 36 N 7 11 30.43 1031 10 16 0.00 0.00
12:35 am 00:35 Clear 54 12 30 -1 40 40 N 8 13 30.44 1031 10 16 0.00 0.00
12:55 am 00:55 Clear 55 13 28 -2 35 35 N 10 17 30.44 1031 10 16 0.00 0.00
1:15 am 01:15 Clear 55 13 28 -2 35 35 N 10 17 30.44 1031 10 16 0.00 0.00
1:35 am 01:35 Clear 55 13 28 -2 35 35 N 9 15 30.45 1031 10 16 0.00 0.00
1:55 am 01:55 Clear 54 12 28 -2 38 38 N 9 15 30.46 1032 10 16 0.00 0.00
2:15 am 02:15 Clear 54 12 28 -2 38 38 N 7 11 30.47 1032 10 16 0.00 0.00
2:35 am 02:35 Clear 54 12 28 -2 38 38 N 9 15 30.48 1032 10 16 0.00 0.00
2:55 am 02:55 Clear 54 12 28 -2 38 38 N 10 17 30.49 1033 10 16 0.00 0.00
3:15 am 03:15 Clear 52 11 28 -2 40 40 N 9 15 30.50 1033 10 16 0.00 0.00
3:35 am 03:35 Clear 52 11 30 -1 43 43 N 9 15 30.50 1033 10 16 0.00 0.00
3:55 am 03:55 Clear 50 10 30 -1 46 46 NNE 5 7 30.52 1033 10 16 0.00 0.00
4:15 am 04:15 Clear 50 10 32 0 50 50 N 7 11 30.52 1033 10 16 0.00 0.00
4:35 am 04:35 Clear 48 9 32 0 53 53 NNE 7 11 30.54 1034 10 16 0.00 0.00
4:55 am 04:55 Clear 48 9 32 0 53 53 NNE 6 9 30.54 1034 10 16 0.00 0.00
5:15 am 05:15 Clear 48 9 32 0 53 53 N 8 13 30.55 1034 10 16 0.00 0.00
5:35 am 05:35 Clear 46 8 32 0 57 57 N 8 13 30.56 1035 10 16 0.00 0.00
5:55 am 05:55 Clear 46 8 32 0 57 57 NNE 7 11 30.56 1035 10 16 0.00 0.00
6:15 am 06:15 Clear 46 8 32 0 57 57 NNE 13 20 30.57 1035 10 16 0.00 0.00
6:35 am 06:35 Clear 46 8 34 1 61 61 NNE 10 17 30.58 1036 10 16 0.00 0.00
6:55 am 06:55 Sunny 45 7 34 1 66 66 NNE 15 24 30.59 1036 N/A 0.00 0.00
7:15 am 07:15 Sunny 45 7 34 1 66 66 NNE 12 19 30.59 1036 N/A 0.00 0.00
7:35 am 07:35 Sunny 45 7 34 1 66 66 NNE 12 19 30.60 1036 N/A 0.00 0.00
7:55 am 07:55 Sunny 46 8 34 1 61 61 NNE 13 20 30.62 1037 N/A 0.00 0.00
8:15 am 08:15 Sunny 46 8 34 1 61 61 NNE 10 17 30.62 1037 N/A 0.00 0.00
8:35 am 08:35 Sunny 46 8 34 1 61 61 NNE 9 15 30.62 1037 N/A 0.00 0.00
8:55 am 08:55 Sunny 48 9 34 1 57 57 NNE 12 19 30.63 1037 10 16 0.00 0.00
9:15 am 09:15 Sunny 48 9 34 1 57 57 N 12 19 30.63 1037 10 16 0.00 0.00
9:35 am 09:35 Sunny 50 10 34 1 53 53 N 8 13 30.63 1037 10 16 0.00 0.00
9:55 am 09:55 Sunny 50 10 36 2 57 57 NNE 14 22 30.63 1037 10 16 0.00 0.00
10:15 am 10:15 Sunny 50 10 36 2 57 57 NE 15 24 30.63 1037 10 16 0.00 0.00
10:35 am 10:35 Sunny 52 11 36 2 54 54 NNE 16 26 30.62 1037 10 16 0.00 0.00
10:55 am 10:55 Sunny 52 11 36 2 54 54 NNE 13 20 30.62 1037 10 16 0.00 0.00
11:15 am 11:15 Sunny 54 12 36 2 50 50 NE 13 20 30.61 1037 10 16 0.00 0.00
11:35 am 11:35 Sunny 54 12 36 2 50 50 NNE 9 15 30.60 1036 10 16 0.00 0.00
11:55 am 11:55 Sunny 54 12 36 2 50 50 ENE 8 13 30.59 1036 10 16 0.00 0.00
12:15 pm 12:15 Sunny 55 13 36 2 47 47 N 6 9 30.58 1036 10 16 0.00 0.00
12:35 pm 12:35 Sunny 55 13 37 3 51 51 NNE 8 13 30.57 1035 10 16 0.00 0.00
12:55 pm 12:55 Sunny 57 14 37 3 47 47 NE 9 15 30.57 1035 10 16 0.00 0.00
1:15 pm 13:15 Sunny 57 14 37 3 47 47 NNE 9 15 30.56 1035 10 16 0.00 0.00
1:35 pm 13:35 Sunny 57 14 36 2 44 44 N 9 15 30.56 1035 10 16 0.00 0.00
1:55 pm 13:55 Sunny 59 15 37 3 44 44 NE 8 13 30.55 1034 10 16 0.00 0.00
2:15 pm 14:15 Sunny 59 15 36 2 41 41 NNE 8 13 30.56 1035 10 16 0.00 0.00
2:35 pm 14:35 Sunny 59 15 36 2 41 41 NNE 7 11 30.55 1034 10 16 0.00 0.00
2:55 pm 14:55 Sunny 59 15 37 3 44 44 NE 7 11 30.55 1034 10 16 0.00 0.00
3:15 pm 15:15 Sunny 59 15 36 2 41 41 NNE 5 7 30.56 1035 10 16 0.00 0.00
3:35 pm 15:35 Sunny 59 15 36 2 41 41 NE 7 11 30.56 1035 10 16 0.00 0.00
3:55 pm 15:55 Sunny 59 15 34 1 39 39 NE 9 15 30.56 1035 10 16 0.00 0.00
4:15 pm 16:15 Sunny 59 15 34 1 39 39 NE 10 17 30.56 1035 10 16 0.00 0.00
4:35 pm 16:35 Sunny 57 14 34 1 41 41 NNE 10 17 30.56 1035 10 16 0.00 0.00
4:55 pm 16:55 Sunny 55 13 34 1 44 44 NNE 9 15 30.57 1035 10 16 0.00 0.00
5:15 pm 17:15 Clear 55 13 34 1 44 44 NNE 7 11 30.57 1035 10 16 0.00 0.00
5:35 pm 17:35 Clear 54 12 34 1 47 47 NNE 5 7 30.57 1035 10 16 0.00 0.00
5:55 pm 17:55 Clear 54 12 34 1 47 47 NNE 7 11 30.57 1035 10 16 0.00 0.00
6:15 pm 18:15 Clear 54 12 34 1 47 47 NNE 5 7 30.58 1036 10 16 0.00 0.00
6:35 pm 18:35 Clear 52 11 34 1 50 50 Calm 30.60 1036 10 16 0.00 0.00
6:55 pm 18:55 Clear 52 11 36 2 54 54 NNE 3 6 30.60 1036 10 16 0.00 0.00
7:15 pm 19:15 Clear 52 11 34 1 50 50 NNE 6 9 30.60 1036 10 16 0.00 0.00
7:35 pm 19:35 Clear 50 10 36 2 57 57 NNE 5 7 30.61 1036 10 16 0.00 0.00
7:55 pm 19:55 Clear 48 9 36 2 61 61 NNE 5 7 30.61 1036 10 16 0.00 0.00
8:15 pm 20:15 Clear 50 10 34 1 53 53 NNE 6 9 30.61 1036 10 16 0.00 0.00
8:35 pm 20:35 Clear 50 10 34 1 53 53 NNE 6 9 30.61 1036 10 16 0.00 0.00
8:55 pm 20:55 Clear 45 7 36 2 70 70 N 5 7 30.61 1037 10 16 0.00 0.00
9:15 pm 21:15 Clear 45 7 36 2 70 70 N 3 6 30.61 1037 10 16 0.00 0.00
9:35 pm 21:35 Clear 46 8 34 1 61 61 N 7 11 30.61 1037 10 16 0.00 0.00
9:55 pm 21:55 Clear 46 8 34 1 61 61 N 6 9 30.61 1037 10 16 0.00 0.00
10:15 pm 22:15 Clear 48 9 34 1 57 57 NNE 6 9 30.61 1036 10 16 0.00 0.00
10:35 pm 22:35 Clear 48 9 32 0 53 53 NNE 5 7 30.61 1036 10 16 0.00 0.00
10:55 pm 22:55 Clear 48 9 32 0 53 53 NNE 5 7 30.61 1036 10 16 0.00 0.00
11:15 pm 23:15 Clear 45 7 32 0 61 61 NNE 7 11 30.61 1037 10 16 0.00 0.00
11:35 pm 23:35 Clear 45 7 34 1 66 66 N 6 9 30.62 1037 10 16 0.00 0.00
11:55 pm 23:55 Clear 45 7 34 1 66 66 N 7 11 30.62 1037 10 16 0.00 0.00

Powered by AerisWeather